Zurück zum Katalog

STARLINK-11549

AktivKommunikationVLEO
NORAD 62832·PAYLOAD·🇺🇸 United States

Gestartet Jan 27, 2025 von Cape Canaveral Space Force Station

Loading…

Nächste Überflüge (nächste 24 Stunden)

TLE

AktuellSource: CelesTrak SupGP

Epoche: Sep 15, 2026, 03:39 UTC

1 62832C 25019D   26258.15256944 -.00073751  00000+0 -57256-3 0  2587
2 62832  43.0005 244.1922 0001441 263.8620 173.8871 15.70886303    13

Verfolge STARLINK-11549 in Echtzeit mit AllMySat

Download on the App Store